Regional Weather Roundup
Issued by NWS

Home | Current Version | Previous Version | Graphics & Text | Print | Product List | Glossary On
Versions: 1 2 3 4 5 6 7 8 9 10 11 12 13 14 15 16 17 18 19 20 21 22 23 24 25 26 27 28 29 30 31 32 33 34 35 36 37 38 39 40 41 42 43 44 45 46 47 48 49 50
000
ASUS44 KMEG 061210
RWRTN
TENNESSEE HOURLY STATE WEATHER ROUNDUP
NATIONAL WEATHER SERVICE MEMPHIS TN
600 AM CST SAT FEB 06 2016

TNZ002-004-019-021-049-052-054-088>092-061300-
WEST TENNESSEE

CITY           SKY/WX    TMP DP  RH WIND       PRES   REMARKS
MEMPHIS INTL   MOCLDY    35  26  69 CALM      30.36R
NWS MEMPHIS      N/A     31 N/A N/A MISG        N/A
JACKSON        CLEAR     25  22  88 CALM      30.37R
DYERSBURG      PTCLDY    28  25  86 CALM      30.38R
UNION CITY     CLEAR     25  23  93 CALM      30.35R
PARIS          CLEAR     28  18  64 S3        30.35S
LEXINGTON      CLEAR     25  21  86 CALM      30.36R
$$

TNZ008-025-027-028-033-062-065-066-061300-
NORTH MIDDLE TENNESSEE

CITY           SKY/WX    TMP DP  RH WIND       PRES   REMARKS
NASHVILLE      PTCLDY    28  21  75 CALM      30.38R
CLARKSVILLE    CLEAR     27  23  85 SE3       30.36S
SMYRNA         CLEAR     25  24  96 CALM      30.40R
COOKEVILLE     CLEAR     21  19  93 CALM      30.36R
CROSSVILLE     CLOUDY    25  18  74 CALM      30.34S
$$

TNZ061-075-076-078-094-096-097-061300-
SOUTH MIDDLE TENNESSEE

CITY           SKY/WX    TMP DP  RH WIND       PRES   REMARKS
FAYETTEVILLE   CLEAR     30  21  69 CALM      30.36R
TULLAHOMA      CLEAR     25  21  86 CALM      30.36S
WINCHESTER     CLEAR     25  23  93 CALM      30.38R
MCMINNVILLE    CLEAR     25  23  93 CALM      30.36S
COLUMBIA       CLEAR     27  27 100 CALM      30.35S
SHELBYVILLE    CLEAR     27  21  80 E6        30.38S WCI  20
$$

TNZ017-018-042-046-047-061300-
NORTHEAST TENNESSEE

CITY           SKY/WX    TMP DP  RH WIND       PRES   REMARKS
TRI CITIES     CLOUDY    23  18  81 CALM      30.38R
$$

TNZ012-013-036-069-073-074-061300-
CENTRAL EAST TENNESSEE

CITY           SKY/WX    TMP DP  RH WIND       PRES   REMARKS
KNOXVILLE      CLOUDY    27  20  75 CALM      30.39R
OAK RIDGE      PTCLDY    26  22  84 CALM      30.40R
GATLINBURG       N/A     21  18  86 CALM      30.39R
MORRISTOWN     SUNNY     27  19  74 E3        30.37R
$$

TNZ083-085-099-061300-
SOUTHEAST TENNESSEE

CITY           SKY/WX    TMP DP  RH WIND       PRES   REMARKS
CHATTANOOGA    MOCLDY    29  25  85 CALM      30.39R
$$

SKY/WX REPORTED AS FAIR MEANS FEW OR NO CLOUDS BELOW
12 THOUSAND FEET.




USA.gov is the U.S. government's official web portal to all federal, state and local government web resources and services.